User: anonymous   Login
Location: La Pernelle
(49.6188°N, 1.2999°W)
Time: 18:26:49
(UTC+00:00)
Language:

FENGYUN 1C DEB - Orbit

View from above orbital plane
View from above orbital plane
View from above satellite
View from above satellite

Ground track
Ground track

The orbit data is extracted from the following two-line orbital elements,

1 30608U 99025AMP 22016.06876084  .00000726  00000-0  36701-3 0  9997
2 30608  98.8631  65.5830 0012117 352.9021  26.6844 14.19326748771500
Epoch (UTC): 16 January 2022 01:39:00
Eccentricity: 0.0012117
inclination: 98.8631°
perigee height: 819 km
apogee height: 836 km
right ascension of ascending node: 65.5830°
argument of perigee: 352.9021°
revolutions per day: 14.19326748
mean anomaly at epoch: 26.6844°
orbit number at epoch: 77150

The dashed part of the orbit path shows where the satellite is in the earth's shadow,  

DLR